Location: Altenst�hlen
(53.5567°N, 8.9425°E)
Time: 11:01:33
(UTC+00:00)

Cosmos 2297 Rocket - Pass Details

Date: 23 October 2019
Orbit: 841 x 842 km, 71.0° (Epoch: 14 November)

Event Time Altitude Azimuth Distance (km) Brightness Sun altitude
Rises 20:55:52 0° 328° (NNW) 3,409 6.2 -40.4°
Reaches altitude 10° 20:58:20 10° 331° (NNW) 2,471 5.3 -40.6°
Enters shadow 21:00:07 21° 334° (NNW) 1,825 4.4 -40.8°
